Temperature
12 12 12 12 12 12 12 12 12 12 12 12 11 11 11 11 11 11 11 11 11 10 10 10 10 9 8 8 7 7 6 5 4 4 4 4 4 4 4 4 4 4 3
12 12 12 12 12 12 12 11 11 11 11 11 11 11 10 10 10 10 10 10 10 10 10 9 9 8 8 7 7 6 5 5 4 4 3 3 3 3 3 3 3 3 3
11 11 11 11 11 11 11 11 11 11 10 10 10 10 10 10 10 10 9 9 9 9 9 8 8 7 7 6 6 5 4 4 3 3 3 3 3 3 3 3 3 3 2
10 11 10 10 10 10 10 10 10 10 9 9 9 9 9 9 9 9 9 9 8 8 8 8 7 7 6 6 5 4 3 3 3 3 2 2 2 3 2 2 2 2 2
10 10 10 10 9 9 9 9 9 9 8 8 8 8 8 8 8 8 8 8 8 8 7 7 7 6 5 5 4 3 3 2 2 2 2 2 2 2 2 2 2 2 2
9 9 9 9 9 8 8 8 8 8 8 8 8 7 7 7 7 7 7 7 7 7 7 6 6 5 4 4 3 3 2 2 2 2 1 1 2 2 2 2 1 1 1
8 8 8 8 8 7 7 7 7 7 7 7 7 7 7 7 7 7 7 6 6 6 6 5 5 4 4 3 2 2 2 2 1 1 1 1 1 1 1 1 1 1 1
7 7 7 7 7 6 6 6 6 6 6 6 6 6 6 6 6 6 6 6 5 5 5 4 4 3 3 2 2 2 1 1 1 1 1 1 1 1 1 1 1 1 1
6 6 6 6 6 6 6 6 6 6 6 6 6 5 5 5 5 5 5 5 5 4 4 3 3 3 2 1 1 1 1 1 1 1 1 1 1 1 1 0 0 0 -0
5 5 5 5 5 5 5 5 5 5 5 5 5 5 5 5 4 4 4 4 4 3 3 3 2 2 1 1 1 1 0 0 0 0 0 0 0 0 0 -0 -0 -0 -0
4 4 4 4 4 4 4 4 4 4 4 4 4 4 4 4 4 3 3 3 3 3 2 2 2 1 1 0 0 -0 -0 -0 -0 -0 -0 -0 -0 -0 -0 -0 -0 -1 -1
3 3 3 3 3 3 3 3 3 3 3 3 3 3 3 3 3 3 3 3 2 2 2 1 1 1 0 -0 -0 -1 -1 -1 -1 -1 -1 -1 -1 -1 -1 -1 -1 -1 -1
2 3 3 3 3 2 2 2 2 2 2 2 2 3 3 3 2 2 2 2 1 1 1 0 0 -0 -0 -1 -1 -1 -1 -1 -1 -1 -1 -1 -1 -1 -1 -1 -1 -1 -1
1 2 2 2 2 2 1 1 1 1 1 1 2 2 2 2 2 2 1 1 0 -0 -0 -1 -1 -1 -1 -1 -1 -2 -2 -2 -1 -1 -2 -2 -2 -1 -2 -2 -2 -2 -2
0 1 1 1 1 1 1 1 1 1 1 1 1 1 1 1 2 1 1 1 0 0 -1 -1 -1 -1 -2 -2 -2 -2 -2 -2 -2 -2 -2 -2 -2 -2 -2 -2 -2 -2 -2
-1 -1 -1 -0 -0 -0 -0 -0 0 0 0 0 0 0 0 1 1 1 1 0 -0 -0 -1 -1 -1 -1 -1 -1 -1 -2 -2 -2 -2 -2 -2 -2 -2 -2 -2 -2 -2 -2 -2
-2 -1 -2 -1 -1 -1 -1 -1 -1 -1 -0 -0 -0 -0 -0 -0 0 0 -0 -0 -1 -1 -1 -1 -1 -1 -1 -1 -1 -1 -1 -2 -2 -2 -2 -2 -2 -2 -2 -2 -3 -3 -3
-2 -2 -2 -2 -2 -2 -2 -2 -2 -2 -2 -1 -1 -1 -1 -1 -1 -1 -1 -1 -1 -1 -1 -1 -1 -1 -1 -1 -1 -1 -2 -2 -2 -2 -2 -2 -2 -2 -3 -3 -3 -3 -3
-3 -3 -3 -3 -3 -3 -3 -3 -3 -3 -3 -2 -2 -2 -1 -1 -1 -1 -1 -1 -1 -1 -1 -1 -1 -1 -1 -1 -1 -1 -2 -2 -2 -2 -2 -2 -2 -2 -3 -3 -3 -3 -3
-4 -4 -4 -4 -4 -4 -4 -4 -4 -4 -3 -3 -3 -2 -2 -2 -2 -2 -2 -2 -2 -1 -1 -1 -1 -1 -1 -1 -2 -2 -2 -2 -2 -2 -2 -2 -2 -2 -3 -3 -3 -3 -3
-4 -4 -4 -4 -4 -5 -5 -5 -4 -4 -4 -4 -3 -3 -3 -3 -3 -2 -2 -2 -2 -2 -1 -1 -1 -1 -1 -2 -2 -2 -2 -2 -2 -2 -2 -2 -3 -3 -3 -3 -3 -4 -4
-5 -5 -5 -5 -5 -5 -5 -5 -5 -5 -5 -4 -4 -4 -4 -3 -3 -3 -3 -2 -2 -2 -2 -2 -2 -2 -2 -2 -2 -2 -2 -2 -2 -2 -2 -3 -3 -3 -3 -3 -4 -4 -4
-5 -5 -5 -5 -6 -6 -6 -6 -5 -5 -5 -5 -5 -4 -4 -4 -4 -4 -3 -3 -3 -3 -2 -2 -2 -2 -2 -2 -2 -2 -2 -3 -3 -3 -3 -3 -3 -3 -4 -4 -4 -4 -4
-6 -6 -6 -6 -6 -6 -6 -6 -6 -6 -6 -5 -5 -5 -5 -5 -4 -4 -4 -4 -3 -3 -3 -3 -3 -3 -3 -3 -3 -3 -3 -3 -3 -3 -3 -4 -4 -4 -4 -4 -5 -5 -5
-6 -7 -7 -7 -7 -7 -7 -7 -6 -6 -6 -6 -6 -6 -5 -5 -5 -5 -4 -4 -4 -4 -4 -4 -4 -3 -3 -3 -3 -3 -3 -3 -4 -4 -4 -4 -4 -5 -5 -5 -5 -5 -6
-7 -7 -7 -7 -7 -7 -7 -7 -7 -7 -7 -6 -6 -6 -6 -6 -5 -5 -5 -5 -5 -4 -4 -4 -4 -4 -4 -4 -4 -4 -4 -4 -4 -4 -5 -5 -5 -5 -5 -6 -6 -6 -6
Wind_Speed
3 2 3 3 4 5 6 7 7 7 8 9 9 9 8 8 8 8 7 7 7 6 5 6 5 5 4 4 3 4 4 5 6 3 1 1 2 3 2 2 2 2 3
2 2 2 2 3 4 5 5 6 7 7 8 8 9 8 8 8 8 8 7 7 7 6 6 6 5 5 4 4 4 4 4 5 5 2 2 2 3 2 2 1 2 3
2 2 2 2 3 3 4 5 6 7 7 7 8 8 8 8 7 7 7 7 6 6 6 6 6 6 6 4 4 4 4 3 4 4 3 2 1 2 2 1 1 1 2
1 1 1 2 2 3 4 5 6 7 8 8 8 8 8 8 7 7 7 6 6 5 5 5 5 5 6 5 4 4 4 4 4 4 3 2 2 2 2 3 2 2 1
2 1 0 1 2 3 4 5 5 6 7 7 8 7 7 7 7 8 7 7 7 6 5 5 4 4 4 4 3 4 4 4 4 4 4 3 3 3 4 3 3 2 1
2 1 1 1 2 3 4 5 6 6 6 7 8 8 7 6 8 9 7 7 7 7 6 5 5 5 5 5 4 3 3 4 4 4 4 5 5 4 3 3 3 2 2
3 2 1 1 2 3 3 5 6 6 7 7 7 8 8 8 11 11 9 7 7 6 6 6 5 5 6 5 5 5 3 1 3 4 5 5 4 4 5 4 4 3 2
3 3 2 2 3 3 4 5 6 6 6 7 7 8 7 8 12 12 11 7 6 6 6 7 7 7 6 6 5 4 3 2 1 3 4 3 2 3 4 3 3 3 2
4 3 3 4 4 5 5 6 6 6 6 7 7 8 8 8 12 13 12 7 6 7 6 7 7 7 9 9 7 5 4 3 2 1 1 2 2 3 4 4 4 3 3
6 5 5 5 5 6 6 6 5 6 6 6 7 8 9 8 12 14 13 7 7 7 7 7 9 9 10 12 8 7 6 5 5 4 4 4 4 5 3 3 4 3 2
7 6 5 5 6 6 6 5 5 5 6 7 7 7 8 9 12 15 16 9 8 7 7 7 7 12 12 13 10 7 6 6 5 5 4 4 3 3 3 2 2 2 2
7 6 6 5 5 4 5 5 5 6 7 8 8 8 7 8 11 14 17 15 11 8 7 7 7 13 13 13 11 9 9 8 5 5 5 5 4 4 3 3 2 2 1
7 6 6 5 5 5 5 6 5 6 6 7 7 7 7 7 9 15 17 18 17 10 7 9 10 12 13 11 12 12 11 8 6 6 6 5 4 4 4 3 3 3 2
8 7 6 5 5 5 5 5 6 6 7 7 8 8 7 7 7 8 9 11 14 12 8 10 13 13 10 9 10 10 9 8 7 7 6 5 5 5 5 5 4 4 3
8 7 7 6 6 5 6 6 7 8 8 8 8 7 7 8 10 14 11 9 9 10 9 7 7 7 9 8 8 8 8 8 8 7 6 6 6 6 5 5 4 5 4
8 7 6 6 5 5 6 6 9 10 12 14 12 10 9 10 10 14 17 16 15 14 10 8 9 9 10 10 9 9 9 9 9 8 7 7 7 7 6 6 6 6 6
8 8 7 6 6 6 6 6 7 7 11 13 14 15 14 12 13 14 16 17 17 17 11 9 9 10 10 10 9 9 10 9 8 8 8 8 7 7 7 7 7 7 7
8 8 7 7 6 6 7 7 7 7 6 6 9 13 14 14 14 14 15 13 11 12 9 9 10 10 9 10 10 9 9 9 9 9 9 9 9 8 8 8 8 9 8
8 7 6 7 7 7 7 7 7 7 7 7 5 6 10 11 12 14 14 9 8 9 9 9 9 9 9 9 9 9 9 9 9 9 9 9 9 9 9 9 9 11 10
8 9 8 7 7 7 7 7 7 7 7 6 6 6 4 5 5 6 8 7 8 8 9 9 9 9 9 9 9 9 9 9 9 9 9 9 9 9 10 10 9 9 9
7 8 9 8 7 7 7 7 7 7 7 6 6 6 7 6 6 6 7 7 8 8 9 8 8 8 8 8 8 9 10 9 9 9 9 9 9 9 9 9 9 9 9
7 7 7 7 7 7 7 7 7 7 7 7 6 6 9 6 6 6 6 6 7 7 7 7 7 8 8 8 9 9 9 9 9 9 9 9 9 9 9 9 9 9 9
7 7 7 7 7 9 9 7 7 7 7 7 6 5 5 5 5 6 6 5 5 6 6 6 7 7 6 7 7 8 9 9 9 9 9 9 9 9 9 10 11 10 10
7 8 8 8 7 7 7 7 7 7 7 7 6 5 5 5 5 5 5 4 4 4 4 5 6 7 8 7 7 8 8 8 9 8 10 9 9 9 9 9 10 11 10
7 8 8 8 8 7 7 7 7 7 6 6 5 5 4 4 4 4 3 3 3 3 4 3 3 4 6 7 6 7 9 11 11 9 8 8 9 9 9 9 9 9 10
8 8 8 7 7 7 7 7 6 6 6 5 5 4 4 4 3 3 2 2 2 2 2 2 3 4 4 5 6 7 9 11 12 12 9 7 8 8 9 8 10 9 9
Wind_Direction
109 140 160 167 170 177 182 183 178 173 173 174 173 168 168 169 170 171 174 172 176 177 181 192 196 194 199 202 210 220 226 234 250 251 214 198 202 198 168 130 96 71 72
85 113 130 145 158 167 172 171 168 167 168 169 167 165 166 168 171 174 171 176 180 182 184 190 193 189 197 199 208 218 226 230 245 251 222 206 220 203 181 156 105 72 65
74 111 131 145 158 166 166 164 163 162 163 164 165 165 165 167 169 172 172 175 180 183 185 191 193 195 200 199 206 214 217 223 234 244 226 206 211 189 178 175 167 123 72
44 97 140 161 171 172 170 167 166 166 166 167 167 166 165 165 166 167 168 170 173 176 182 189 195 201 204 200 203 212 212 218 222 228 219 209 211 192 196 200 203 197 187
4 359 353 166 164 169 170 170 169 169 170 168 165 165 167 170 172 171 170 173 175 178 181 186 190 190 197 196 202 208 210 219 220 220 218 208 207 201 207 196 204 187 191
336 318 305 202 184 181 179 176 175 174 173 172 174 173 174 178 174 176 176 178 182 184 183 182 179 181 182 182 186 200 223 230 225 220 222 223 220 213 195 188 181 190 209
325 310 276 232 215 202 190 187 188 184 182 184 185 185 187 184 181 184 185 181 183 184 182 183 184 182 178 173 162 158 167 210 256 242 237 232 221 203 188 189 193 210 200
316 302 277 247 232 217 208 205 200 194 193 194 195 195 195 190 188 187 182 184 186 187 190 193 193 189 187 184 181 181 184 183 219 239 247 243 230 195 192 191 177 159 133
308 294 275 253 239 227 221 216 208 203 203 203 199 198 201 198 194 191 184 186 192 195 197 201 201 198 189 188 187 189 193 183 140 129 101 114 129 150 161 154 160 177 195
311 296 280 258 244 237 232 226 220 213 212 206 206 206 205 205 200 198 192 195 198 197 199 204 208 207 194 193 197 197 204 195 176 160 147 133 138 143 160 195 188 194 197
309 296 282 264 253 247 240 230 223 219 214 212 213 214 214 214 206 204 201 203 202 200 201 204 204 204 205 204 207 210 205 189 186 187 183 175 170 164 165 167 179 196 198
308 297 286 274 261 247 239 231 225 220 218 216 216 218 218 215 215 213 211 211 207 206 207 208 203 200 206 208 208 204 193 187 189 193 199 199 195 187 170 156 142 125 91
309 301 294 284 267 249 237 231 226 223 224 222 218 220 220 213 216 219 219 217 214 212 211 205 199 200 204 210 213 203 195 196 195 202 208 206 196 176 158 150 147 140 129
307 303 296 286 276 262 248 235 231 228 228 227 225 225 221 214 212 210 213 219 216 216 212 207 204 204 205 207 205 205 205 204 203 211 209 197 176 172 185 185 186 183 191
304 300 294 282 274 267 256 246 241 240 236 234 232 229 222 224 220 208 201 206 206 204 189 187 193 195 201 203 204 205 204 202 209 211 204 197 193 192 194 191 193 193 206
303 300 295 290 283 276 270 267 250 249 251 248 245 239 236 236 228 217 215 213 208 199 190 196 201 204 206 205 204 204 205 208 208 205 205 204 202 199 197 191 195 205 213
296 295 293 288 284 281 276 273 276 267 256 253 248 244 241 237 231 223 220 215 210 201 204 206 207 208 209 208 207 207 208 207 202 203 204 203 202 202 201 201 202 208 215
294 290 287 285 283 280 278 275 273 273 274 267 252 246 245 243 234 225 219 211 209 206 210 211 210 209 208 208 207 208 208 202 200 204 204 203 201 202 205 207 207 209 212
293 290 290 288 283 280 277 275 272 269 269 270 268 255 246 246 239 229 217 210 207 208 210 214 213 210 208 207 207 206 204 203 200 200 204 203 201 203 208 211 211 211 211
288 285 288 288 285 281 278 275 273 270 268 266 262 260 248 236 234 224 218 212 212 213 210 212 211 209 207 206 204 203 203 205 203 204 205 203 202 203 208 209 209 209 210
291 290 288 286 283 281 279 276 274 271 270 268 265 260 252 242 236 228 223 219 217 215 213 212 211 208 207 203 201 202 203 206 205 204 204 203 201 203 207 207 208 210 211
285 287 288 285 284 282 282 279 275 271 270 270 270 267 260 253 243 237 231 226 223 221 215 211 212 209 206 204 202 202 204 207 205 203 203 201 201 204 204 205 206 205 208
281 283 285 284 283 284 284 279 276 273 271 269 267 265 260 255 249 240 234 230 225 221 215 210 212 210 205 204 204 204 205 206 204 200 200 200 199 200 202 205 205 204 206
279 280 282 284 284 284 283 280 278 276 273 270 268 265 263 263 261 252 242 232 224 219 213 210 212 211 204 203 206 208 211 208 199 198 197 199 198 199 200 204 207 208 209
278 279 280 281 281 281 281 281 281 278 274 271 269 270 270 270 269 266 256 239 224 219 213 210 210 211 210 208 208 207 208 206 201 196 194 198 200 199 199 202 205 206 208
281 281 281 281 279 279 279 279 279 280 278 277 276 273 272 271 272 271 265 250 234 226 219 214 209 208 209 213 216 215 213 212 210 204 198 198 199 201 200 203 204 206 207
Height
1466 1468 1469 1471 1472 1474 1476 1478 1479 1481 1483 1485 1487 1489 1491 1493 1495 1496 1498 1499 1499 1500 1500 1501 1501 1501 1501 1501 1501 1501 1501 1501 1501 1501 1500 1500 1500 1500 1500 1500 1500 1500 1499
1465 1466 1467 1468 1469 1471 1473 1474 1476 1477 1479 1481 1482 1484 1486 1488 1490 1492 1493 1494 1494 1495 1495 1496 1496 1496 1496 1495 1496 1496 1496 1496 1497 1496 1496 1496 1496 1496 1496 1497 1497 1496 1496
1464 1464 1465 1466 1467 1468 1469 1471 1472 1473 1475 1477 1478 1480 1482 1484 1485 1487 1488 1489 1489 1490 1490 1490 1491 1491 1490 1490 1490 1490 1491 1491 1491 1492 1492 1492 1492 1493 1493 1493 1493 1493 1492
1462 1463 1463 1463 1464 1465 1466 1467 1468 1470 1471 1472 1474 1476 1478 1480 1481 1482 1483 1484 1485 1485 1485 1485 1485 1485 1485 1485 1485 1485 1486 1486 1487 1487 1487 1488 1488 1488 1489 1489 1489 1489 1489
1460 1461 1461 1461 1461 1462 1463 1464 1465 1466 1467 1469 1470 1472 1473 1475 1476 1477 1478 1479 1480 1480 1480 1480 1480 1480 1480 1480 1481 1481 1481 1482 1482 1483 1483 1484 1484 1484 1485 1485 1486 1486 1485
1459 1458 1458 1458 1459 1459 1460 1460 1461 1462 1463 1465 1466 1468 1469 1470 1472 1472 1473 1474 1474 1475 1475 1475 1475 1475 1476 1476 1476 1477 1477 1478 1478 1479 1479 1480 1480 1481 1481 1482 1482 1483 1483
1456 1456 1455 1455 1455 1456 1456 1457 1458 1458 1460 1461 1462 1463 1464 1466 1467 1468 1468 1469 1470 1470 1470 1471 1471 1471 1471 1471 1472 1472 1473 1474 1475 1475 1476 1476 1477 1477 1478 1478 1479 1479 1480
1454 1453 1453 1452 1452 1452 1453 1453 1454 1454 1455 1456 1457 1459 1460 1461 1462 1463 1464 1464 1464 1465 1465 1466 1467 1467 1467 1468 1468 1469 1469 1470 1470 1471 1471 1472 1473 1473 1474 1475 1475 1476 1476
1452 1451 1450 1449 1449 1449 1449 1449 1450 1450 1451 1452 1453 1454 1455 1456 1457 1458 1458 1459 1459 1460 1461 1461 1462 1462 1463 1464 1464 1465 1465 1466 1467 1467 1467 1468 1469 1469 1470 1472 1472 1473 1473
1448 1447 1446 1445 1445 1444 1445 1445 1445 1445 1446 1447 1448 1449 1450 1450 1451 1452 1453 1454 1455 1455 1456 1456 1457 1458 1459 1459 1460 1461 1461 1462 1463 1463 1464 1465 1465 1466 1467 1468 1469 1470 1471
1444 1443 1441 1441 1440 1440 1439 1439 1440 1440 1440 1441 1442 1443 1444 1445 1446 1447 1448 1449 1449 1450 1450 1451 1452 1453 1454 1455 1456 1457 1457 1458 1459 1460 1460 1461 1462 1463 1464 1465 1466 1467 1468
1440 1439 1437 1436 1435 1434 1434 1434 1434 1434 1435 1435 1436 1437 1438 1439 1440 1440 1442 1443 1444 1444 1445 1446 1447 1448 1449 1450 1451 1452 1453 1454 1455 1456 1457 1458 1459 1460 1461 1462 1463 1464 1465
1436 1434 1433 1431 1430 1429 1429 1428 1428 1428 1429 1429 1429 1430 1431 1432 1433 1434 1435 1436 1437 1439 1440 1441 1442 1443 1444 1446 1447 1448 1449 1450 1451 1452 1453 1454 1455 1456 1457 1459 1460 1461 1462
1432 1430 1428 1427 1425 1424 1423 1423 1422 1422 1422 1422 1423 1424 1424 1425 1426 1427 1428 1430 1431 1432 1434 1436 1437 1438 1439 1441 1442 1443 1444 1446 1447 1448 1450 1451 1452 1453 1454 1455 1456 1457 1459
1427 1425 1424 1422 1420 1419 1418 1417 1417 1416 1417 1417 1417 1417 1418 1418 1420 1421 1422 1423 1424 1426 1428 1430 1431 1432 1434 1435 1437 1438 1439 1441 1442 1444 1445 1446 1448 1449 1450 1452 1453 1454 1455
1423 1421 1419 1418 1416 1414 1413 1412 1410 1411 1410 1410 1410 1411 1410 1412 1413 1414 1415 1417 1418 1420 1422 1423 1424 1426 1428 1429 1431 1432 1434 1435 1437 1439 1440 1442 1443 1445 1446 1447 1449 1450 1451
1419 1417 1415 1413 1411 1409 1407 1406 1404 1404 1403 1403 1403 1403 1404 1405 1406 1407 1408 1410 1412 1414 1415 1416 1418 1420 1421 1423 1425 1427 1428 1430 1432 1433 1435 1437 1438 1440 1441 1443 1444 1445 1446
1414 1412 1410 1408 1406 1404 1402 1401 1399 1398 1397 1396 1396 1397 1397 1398 1399 1400 1402 1404 1405 1407 1408 1410 1412 1413 1415 1417 1419 1421 1423 1424 1426 1427 1429 1431 1433 1434 1436 1437 1438 1440 1441
1409 1407 1405 1403 1401 1399 1397 1396 1394 1393 1392 1390 1390 1390 1391 1391 1392 1394 1395 1397 1398 1400 1401 1403 1405 1407 1409 1411 1413 1415 1416 1418 1420 1421 1423 1425 1427 1428 1430 1431 1433 1434 1435
1404 1402 1400 1398 1395 1394 1392 1390 1389 1388 1386 1385 1384 1384 1385 1385 1385 1387 1388 1389 1391 1393 1395 1396 1398 1400 1402 1404 1406 1408 1410 1411 1413 1415 1416 1418 1420 1422 1423 1425 1426 1428 1429
1400 1397 1395 1393 1390 1388 1387 1385 1383 1382 1381 1380 1379 1379 1379 1379 1379 1380 1381 1382 1384 1386 1387 1389 1391 1393 1396 1397 1399 1401 1403 1405 1406 1408 1410 1411 1413 1415 1416 1418 1420 1421 1422
1395 1392 1390 1388 1385 1383 1381 1380 1378 1377 1375 1374 1373 1373 1373 1373 1373 1374 1375 1376 1377 1379 1381 1382 1384 1386 1388 1390 1392 1394 1396 1397 1399 1401 1403 1404 1406 1408 1409 1411 1412 1414 1415
1390 1388 1385 1383 1380 1378 1376 1374 1373 1371 1370 1369 1368 1367 1367 1367 1367 1368 1369 1370 1371 1372 1374 1375 1377 1379 1381 1383 1385 1386 1388 1390 1392 1394 1396 1397 1399 1401 1402 1404 1405 1407 1408
1385 1383 1380 1378 1376 1373 1371 1369 1367 1366 1365 1364 1363 1363 1362 1362 1362 1362 1363 1364 1365 1366 1368 1369 1371 1372 1374 1376 1378 1379 1381 1383 1385 1387 1389 1390 1392 1393 1395 1396 1398 1399 1401
1380 1378 1376 1373 1371 1369 1367 1365 1363 1361 1360 1359 1358 1358 1357 1357 1357 1357 1358 1359 1360 1361 1362 1363 1364 1366 1367 1369 1371 1372 1374 1376 1378 1380 1381 1383 1385 1386 1388 1389 1391 1392 1394
1375 1373 1371 1368 1366 1364 1363 1361 1359 1357 1356 1355 1354 1353 1353 1353 1352 1353 1353 1354 1355 1355 1356 1358 1359 1360 1361 1363 1364 1366 1367 1369 1371 1372 1374 1376 1378 1379 1381 1382 1384 1385 1387